Flight Track Log - Related Links

Times and Time Zones

All times are in EDT time to prevent confusion due to time zone crossing. See the N779NC flight status page for this flight to view local times or setup timezone preferences in your user account.

Time Position Orientation Groundspeed Altitude Reporting Facility
EDT Latitude Longitude Course Direction KTS MPH feet Rate Location/Type
Sat 12:53:19 PM 42.2017 -83.3583 225° Southwest 158 182 1,400  Level Cleveland Center
Sat 12:54:14 PM 42.1669 -83.4044 225° Southwest 225 259 3,100 2,154 Climbing Cleveland Center
Sat 12:55:16 PM 42.1236 -83.4725 229° Southwest 249 287 5,600 2,191 Climbing Cleveland Center
Sat 12:57:12 PM 42.1883 -83.6350 298° West 290 334 9,600 1,740 Climbing Cleveland Center
Sat 12:58:36 PM 42.2661 -83.7594 310° West 299 344 11,400 1,708 Climbing Cleveland Center
Sat 12:59:36 PM 42.3344 -83.8583 313° West 332 382 13,700 2,100 Climbing Cleveland Center
Sat 01:00:36 PM 42.4044 -83.9606 313° West 353 406 15,600 1,850 Climbing Cleveland Center
Sat 01:01:36 PM 42.4233 -84.0939 281° West 353 406 17,400 1,600 Climbing Cleveland Center
Sat 01:02:36 PM 42.4272 -84.2347 272° West 365 420 18,800 1,550 Climbing Cleveland Center
Sat 01:03:36 PM 42.4308 -84.3783 272° West 372 428 20,500 1,450 Climbing Cleveland Center
Sat 01:05:05 PM 42.4394 -84.5661 274° West 387 445 22,400 1,351 Climbing Chicago Center
Sat 01:06:07 PM 42.4461 -84.7469 273° West 399 459 23,900 1,355 Climbing Chicago Center
Sat 01:07:09 PM 42.4556 -84.8994 275° West 406 467 25,200 1,210 Climbing Chicago Center
Sat 01:08:11 PM 42.4603 -85.0531 272° West 409 471 26,400 968 Climbing Chicago Center
Sat 01:09:13 PM 42.4669 -85.2106 273° West 416 479 27,200 629 Climbing Chicago Center
Sat 01:10:15 PM 42.4672 -85.3711 270° West 425 489 27,700 -242 Climbing Chicago Center
Sat 01:11:17 PM 42.4633 -85.5386 268° West 440 506 26,700 -1,161 Descending Chicago Center
Sat 01:12:19 PM 42.4722 -85.7392 274° West 444 511 25,300 -1,306 Descending Chicago Center
Sat 01:13:21 PM 42.4789 -85.9094 273° West 449 517 24,000 -1,258 Descending Chicago Center
Sat 01:14:23 PM 42.4686 -86.0781 265° West 451 519 22,700 -1,258 Descending Chicago Center
Sat 01:15:25 PM 42.4767 -86.2406 274° West 433 498 21,400 -1,355 Descending Chicago Center
Sat 01:16:27 PM 42.5128 -86.3875 288° West 410 472 19,900 -1,452 Descending Chicago Center
Sat 01:17:29 PM 42.5300 -86.5294 279° West 376 433 18,400 -2,032 Descending Chicago Center
Sat 01:18:31 PM 42.5461 -86.6697 279° West 373 429 15,700 -2,468 Descending Chicago Center
Sat 01:19:33 PM 42.5372 -86.8100 265° West 375 432 13,300 -2,323 Descending Chicago Center
Sat 01:20:35 PM 42.4994 -86.9517 250° West 341 392 10,900 -1,548 Descending Chicago Center
Sat 01:21:37 PM 42.4744 -87.0708 254° West 330 380 10,100 -677 Descending Chicago Center
Sat 01:22:39 PM 42.4472 -87.1886 253° West 328 377 9,500 -484 Descending Chicago Center
Sat 01:23:41 PM 42.4169 -87.3003 250° West 321 369 9,100 -581 Descending Chicago Center
Sat 01:24:43 PM 42.3908 -87.3950 250° West 274 315 8,300 -919 Descending Chicago Center
Sat 01:25:45 PM 42.3492 -87.5069 243° Southwest 269 310 7,200 -629 Descending Chicago Center
Sat 01:26:47 PM 42.2925 -87.5711 220° Southwest 272 313 7,000 -97 Descending Chicago Center
Sat 01:27:49 PM 42.2339 -87.6325 218° Southwest 269 310 7,000 -823 Level Chicago Center
Sat 01:28:51 PM 42.1822 -87.6931 221° Southwest 250 288 5,300 -1,645 Descending Chicago Center

Login

Don't have an account? Register now (free) for customized features, flight alerts, and more!